Theta_e
316 319 323 328 338 343 347 347 344 344 337 333 333 334 334 335 336 330 338 341 343 348 348 347 339 332 331 332 329 328 324 323 323 324 325 327 328 328 328 330 332 332 329 335 336 335 341 343 342
316 319 324 319 340 342 341 342 344 333 333 332 332 333 335 337 339 343 343 341 343 347 347 343 336 333 332 330 328 326 325 325 325 326 327 329 329 330 331 332 333 330 330 332 333 335 339 341 340
317 319 314 320 336 345 342 340 332 332 331 334 333 332 334 337 340 339 336 341 347 346 344 341 334 332 331 329 329 327 327 326 326 326 327 330 331 332 333 334 334 332 331 332 333 334 335 338 339
319 317 311 315 326 337 340 338 339 334 330 330 332 335 332 334 335 334 336 336 337 340 339 332 330 330 329 328 327 326 326 326 327 326 326 327 329 330 331 332 332 331 331 330 330 330 331 335 337
319 309 313 317 318 336 336 337 335 335 332 331 331 333 333 333 331 328 331 331 331 337 337 331 329 327 327 326 325 326 326 327 327 327 326 325 325 325 326 327 328 329 329 329 330 332 333 333 332
312 309 317 332 337 339 338 335 335 334 331 331 332 332 331 333 327 330 327 328 329 329 330 327 326 325 326 325 324 325 326 326 326 326 326 326 326 326 326 325 325 325 325 324 324 324 324 324 324
313 312 315 334 341 341 340 336 334 333 333 334 330 333 331 334 333 332 326 328 328 326 325 325 325 325 324 324 324 324 324 324 324 324 326 330 331 330 331 331 330 330 331 331 328 325 323 321 319
309 311 315 331 340 342 339 338 335 335 335 332 333 334 333 332 338 337 331 327 325 324 324 323 324 324 324 324 324 323 324 324 324 327 330 332 335 335 337 338 339 338 338 337 337 335 333 331 330
311 312 314 331 340 340 336 337 337 337 335 336 334 332 332 334 339 338 333 333 330 326 325 324 324 324 324 324 324 325 325 325 326 330 334 337 340 341 341 341 341 342 342 341 340 340 340 340 338
312 313 322 332 335 337 338 339 340 337 338 336 334 332 333 337 338 336 335 335 333 329 325 324 324 325 325 327 325 327 327 329 332 335 335 338 342 343 343 347 348 348 346 347 349 350 349 346 343
314 321 330 337 336 336 340 340 339 337 339 335 335 335 336 337 337 335 333 333 328 326 327 325 324 326 328 331 332 329 333 334 337 338 340 342 343 348 349 349 349 350 349 349 350 350 350 349 347
320 334 339 339 340 337 339 339 339 337 338 334 334 334 336 337 336 337 337 339 334 329 327 327 328 329 334 340 341 338 336 340 341 340 343 343 344 349 348 347 347 346 346 346 345 346 346 347 347
323 339 339 337 335 334 335 337 337 337 338 333 332 333 335 335 334 336 338 340 339 337 333 337 336 338 341 344 345 344 342 343 343 344 344 346 347 346 346 345 344 343 341 341 340 339 338 339 341
334 339 340 336 335 335 335 336 338 335 336 337 333 340 343 342 342 340 335 339 339 341 341 343 342 342 343 343 348 343 343 346 346 346 346 345 345 344 342 340 339 338 336 334 333 333 334 335 336
336 340 339 339 337 337 335 336 339 337 336 339 341 347 346 345 346 344 340 338 339 342 342 344 344 345 345 349 348 346 346 345 344 343 343 342 340 338 336 334 332 333 332 330 329 329 330 330 331
333 327 342 339 338 337 337 335 338 337 338 339 346 348 347 345 346 348 348 347 347 348 348 349 351 351 351 350 348 346 344 342 339 337 336 334 332 329 328 329 330 330 329 327 327 328 327 327 328
314 317 319 341 336 336 338 341 337 337 339 340 346 347 346 345 346 348 348 348 348 350 350 350 351 351 351 347 344 341 338 336 332 329 327 328 326 325 324 329 328 327 326 326 326 325 324 325 326
316 317 319 334 333 336 339 340 339 341 341 343 346 346 347 347 346 347 348 349 349 350 351 351 350 350 348 343 337 333 330 327 324 321 320 320 321 321 322 326 324 322 323 324 324 322 322 322 322
316 316 316 315 319 337 340 339 342 339 342 345 345 346 347 347 344 345 346 348 348 348 350 350 348 346 346 340 334 330 328 324 319 318 316 315 316 315 317 319 315 315 322 321 322 321 319 322 322
315 316 315 314 324 331 335 340 343 338 344 346 346 345 345 342 342 340 342 345 347 345 346 348 347 346 342 340 336 332 326 322 319 318 315 313 313 312 312 313 316 319 321 319 320 318 318 318 321
316 317 316 318 322 325 338 340 345 342 344 344 344 344 344 345 343 338 336 338 339 339 341 344 343 343 340 341 335 329 325 322 319 318 316 315 315 315 315 316 315 317 319 317 319 318 318 318 319
317 316 317 322 323 323 328 341 325 342 345 344 343 342 343 344 340 336 334 335 336 335 336 339 339 338 336 339 336 331 324 323 320 319 317 316 318 318 317 317 317 316 316 316 315 315 317 318 318
317 316 318 321 320 321 321 319 318 329 338 343 342 343 343 341 338 335 333 334 334 334 331 332 333 333 333 336 334 327 322 322 320 319 318 319 319 319 319 319 319 318 318 318 317 315 316 317 316
319 319 316 315 315 319 318 318 317 317 328 339 338 342 343 340 336 332 333 333 331 330 330 328 330 328 331 331 327 324 321 323 320 319 320 320 320 320 319 320 320 320 320 319 318 317 316 316 315
316 316 318 319 317 321 317 318 318 321 323 321 331 340 343 340 335 332 329 328 329 327 327 326 325 324 324 323 321 321 321 322 322 320 320 320 320 320 319 320 321 321 320 319 320 318 317 316 313
319 316 317 320 318 317 317 321 322 327 325 334 323 334 341 338 333 332 329 328 327 326 325 325 323 323 323 322 321 320 320 320 322 321 320 320 320 321 321 321 321 320 320 319 317 316 316 315 313
320 319 315 317 317 320 319 325 327 327 335 341 340 341 340 337 332 330 329 327 327 326 324 324 323 321 321 321 321 321 320 319 320 320 320 321 321 322 322 321 320 319 318 316 315 314 315 314 312
319 317 321 317 323 325 321 324 325 328 332 340 340 338 336 332 329 327 327 326 327 326 324 322 320 318 318 319 319 319 319 320 321 321 321 322 322 322 320 317 315 315 315 314 313 313 313 312 311
321 319 315 316 319 323 324 323 320 326 325 336 337 336 334 333 330 326 325 326 326 325 323 322 321 320 318 321 323 323 321 320 322 322 322 321 319 314 312 311 311 311 312 312 312 311 311 310 307
320 320 317 320 321 319 319 319 318 323 323 325 333 335 334 333 330 327 324 325 324 324 323 323 323 322 321 321 323 322 321 322 322 322 320 315 313 312 311 308 307 307 308 310 310 310 307 306 306
Wind_Speed
4 3 4 2 4 5 3 2 1 3 3 4 4 3 8 3 1 3 1 12 23 21 19 18 17 17 15 13 11 10 10 10 10 11 11 12 12 11 11 10 9 9 10 10 9 8 8 7 6
3 1 2 2 4 3 5 4 1 5 8 11 8 5 5 3 3 7 15 11 20 20 19 18 17 16 14 12 11 10 10 10 10 11 11 11 11 11 11 11 10 9 9 8 6 5 4 4 4
2 0 3 4 3 3 1 3 5 7 7 2 6 4 5 3 4 13 6 26 19 20 19 18 17 15 14 12 10 10 10 9 10 10 10 10 10 9 9 8 8 7 6 5 3 1 2 3 4
1 6 4 4 1 3 7 5 2 5 6 8 5 6 5 6 15 11 28 24 21 20 20 19 17 15 13 12 11 10 9 9 9 9 9 8 7 6 5 5 4 3 2 2 2 3 5 6 8
4 3 3 2 3 3 4 3 4 5 2 6 5 4 4 3 14 30 29 25 24 22 19 18 17 15 13 12 11 10 9 8 8 8 8 7 5 4 3 2 1 1 2 3 5 7 8 9 11
4 3 4 0 2 4 3 4 6 4 3 9 9 7 3 18 31 29 27 27 24 23 20 18 16 14 13 12 11 10 9 8 7 7 7 6 5 3 2 1 1 2 4 6 7 9 11 12 13
6 3 3 3 3 4 2 2 4 5 3 3 6 6 3 8 24 28 27 25 23 21 20 18 16 14 13 12 11 9 9 8 7 6 6 5 4 2 3 3 4 6 7 8 9 10 11 12 13
5 4 6 4 6 5 2 4 5 5 3 7 7 5 6 12 24 26 26 26 24 21 19 18 17 15 13 12 10 9 7 7 7 6 5 3 2 4 6 7 8 9 10 11 12 14 16 16 16
4 4 2 7 9 5 3 4 3 2 8 3 6 8 13 30 29 26 24 22 23 22 20 19 17 15 13 11 10 9 7 6 5 4 3 1 4 7 9 11 13 14 14 15 16 17 19 19 19
4 4 8 7 9 9 10 9 10 6 4 2 8 13 26 30 29 25 20 21 24 24 23 21 19 16 14 11 10 9 8 6 5 3 1 3 6 9 7 9 9 9 10 10 12 12 15 16 17
4 4 5 5 5 16 11 7 4 9 4 6 18 17 21 25 22 21 21 24 32 26 23 23 20 17 14 11 8 8 7 6 5 3 3 3 6 6 8 8 9 9 9 10 10 13 15 17 16
3 2 6 3 4 6 8 5 6 2 4 10 16 19 19 16 18 20 19 23 24 25 23 21 19 17 14 9 7 7 8 7 6 5 5 5 2 4 7 9 10 10 11 12 13 14 15 15 14
4 3 5 4 5 5 6 5 3 2 3 9 9 16 14 11 12 14 14 22 25 25 24 20 18 17 13 11 6 7 8 6 7 5 3 3 5 6 8 10 11 13 14 15 16 16 17 16 16
4 8 5 6 5 4 5 2 2 6 5 6 8 9 8 11 14 12 19 20 23 25 23 17 18 16 14 13 7 10 10 12 11 12 11 9 7 7 8 10 12 13 15 16 17 17 17 16 16
9 7 7 4 3 1 3 4 5 3 5 6 8 8 9 8 14 14 21 25 25 20 21 17 19 17 17 16 17 18 17 16 14 12 9 8 8 9 10 11 13 14 14 16 17 17 17 19 19
6 5 5 4 2 2 3 9 7 7 10 9 9 9 10 7 13 21 23 24 22 21 20 19 16 18 20 20 21 20 17 16 14 13 12 11 11 11 11 13 16 15 16 18 20 20 21 22 21
6 5 2 2 5 1 4 6 7 8 8 7 10 10 9 8 11 19 20 20 18 16 16 19 17 20 23 23 22 20 18 16 15 13 13 13 13 13 13 14 15 15 17 20 20 22 24 26 24
5 3 4 8 10 7 6 10 5 5 9 10 11 11 11 12 10 22 22 21 20 19 18 17 21 23 24 24 23 22 19 17 16 15 14 14 15 15 15 15 16 16 17 19 20 22 23 27 25
1 2 3 5 9 11 20 6 13 8 6 9 10 11 10 11 11 23 27 24 21 18 19 20 21 22 23 23 25 22 21 17 17 16 15 15 16 15 15 15 16 17 18 19 20 21 23 26 27
3 2 7 9 6 7 10 17 10 11 15 18 17 14 13 7 8 13 24 25 22 19 17 18 18 20 18 18 16 20 20 17 17 16 17 16 16 17 19 19 20 20 18 20 21 23 23 23 24
3 2 4 7 5 4 9 5 4 7 5 7 8 11 12 18 16 12 14 18 22 23 23 23 20 20 16 18 21 20 18 18 17 15 17 17 16 16 17 17 18 18 17 19 18 19 20 20 20
4 7 6 4 3 4 2 4 5 11 14 11 13 11 14 14 10 11 15 20 22 20 20 21 21 19 19 22 21 19 20 18 16 15 16 15 14 14 15 16 16 16 17 17 17 16 17 16 17
11 7 8 3 3 4 1 3 6 6 11 17 14 16 15 16 16 14 15 22 19 19 18 18 20 19 20 22 20 19 17 15 17 15 13 12 12 12 12 13 13 13 13 14 15 16 16 16 15
5 5 7 5 3 2 4 5 5 6 16 24 18 19 18 15 13 12 20 23 20 19 21 19 19 18 22 23 20 18 16 18 19 16 13 10 9 9 9 8 9 11 11 10 11 12 13 13 12
6 7 2 3 3 5 4 3 8 6 9 9 17 22 23 18 15 14 14 17 24 19 19 21 20 19 20 21 19 17 15 14 16 15 10 8 7 7 5 6 9 11 11 11 8 11 13 13 12
0 7 6 6 4 5 4 5 5 6 8 4 13 15 14 17 15 17 18 22 26 28 23 23 22 21 20 21 20 18 16 15 15 13 10 7 4 3 4 5 7 8 7 8 10 11 10 7 12
5 3 4 7 4 3 3 4 7 6 6 8 8 11 13 13 15 16 20 20 26 30 29 27 26 23 21 21 21 19 18 18 15 13 10 6 3 1 3 6 8 7 7 8 10 11 9 10 12
7 8 3 3 4 3 4 4 5 5 4 4 8 10 9 9 11 13 19 25 30 34 34 32 31 30 28 26 24 23 20 17 15 14 11 8 6 1 3 6 7 7 8 10 11 10 9 10 13
1 2 6 5 4 6 2 6 7 9 9 11 10 13 16 17 18 16 20 26 28 33 36 36 34 33 32 28 24 22 22 19 16 12 10 8 5 4 6 8 9 11 11 11 11 9 10 11 12
7 6 6 5 3 0 3 6 6 9 8 9 11 13 13 15 19 18 22 27 25 29 33 37 35 33 30 27 23 23 23 21 19 14 10 8 8 7 8 8 10 11 11 9 9 10 11 12 14
Wind_Direction
340 347 321 6 60 58 349 329 207 304 35 335 55 124 130 24 96 195 143 152 154 154 160 160 150 140 135 127 117 111 108 103 98 96 97 98 98 99 99 98 97 103 116 121 114 103 93 85 78
343 45 29 48 80 55 299 262 209 134 140 120 111 107 63 60 78 117 127 163 155 154 159 156 148 139 134 129 123 118 112 108 105 104 104 103 101 100 100 98 99 105 117 127 125 109 93 76 53
327 320 85 97 122 118 197 271 161 157 165 226 119 85 108 117 90 146 160 158 152 157 157 153 146 141 137 132 127 122 116 111 108 107 108 108 107 105 103 101 100 104 117 129 138 139 345 346 345
93 12 25 75 301 264 159 200 167 127 34 60 97 59 71 180 153 167 153 159 156 156 157 152 147 144 142 137 133 128 122 117 112 109 108 109 110 110 112 112 110 109 125 176 243 276 296 308 310
53 50 52 66 267 339 324 111 68 346 12 97 102 86 82 39 151 150 156 160 158 159 159 153 150 149 147 144 141 137 131 123 117 111 108 108 111 116 122 128 156 243 259 268 275 281 285 287 290
46 99 61 221 10 358 21 99 144 52 14 91 86 97 38 141 144 155 159 162 161 158 157 155 154 154 152 151 148 144 137 128 121 115 111 108 104 100 91 48 324 309 300 297 294 291 290 290 292
120 79 183 129 130 27 110 348 52 82 253 52 152 88 90 157 159 159 162 164 163 162 160 161 161 161 161 159 156 150 143 134 126 121 113 96 76 45 9 348 333 324 324 323 322 317 313 312 308
114 110 138 216 170 171 50 23 85 201 325 175 122 154 178 198 169 166 166 168 168 169 169 167 167 170 170 167 165 158 154 142 134 126 117 87 25 344 328 325 324 323 324 323 323 324 321 317 315
142 68 166 180 154 166 152 147 214 197 173 225 152 132 167 166 168 165 166 175 177 178 180 179 176 176 175 174 172 173 170 165 161 153 144 56 355 349 341 332 329 326 322 320 325 325 320 315 309
109 123 213 187 164 166 173 180 169 146 187 356 79 106 141 156 164 165 171 181 186 187 186 186 184 179 179 181 185 182 184 180 182 187 245 320 355 355 11 37 25 22 15 2 355 358 349 334 323
178 199 178 210 190 164 158 177 204 144 188 196 146 149 159 165 174 174 182 186 186 190 191 190 189 186 186 186 193 203 201 202 210 234 280 330 2 36 72 70 54 40 25 15 5 355 357 2 356
177 21 121 155 174 122 165 98 112 223 225 168 152 154 166 173 181 186 182 190 188 192 192 196 192 194 194 197 220 239 231 235 246 258 281 297 340 80 66 40 27 15 8 356 350 343 340 342 347
101 62 77 83 10 49 57 66 82 14 19 137 142 150 174 182 188 198 199 193 187 192 192 197 194 200 202 205 248 241 216 231 235 243 218 138 115 65 38 32 22 15 6 0 356 353 349 341 334
118 87 61 26 4 359 113 5 13 192 149 126 140 132 146 151 170 165 187 190 191 194 193 200 198 197 208 213 188 155 144 130 126 116 109 98 77 51 35 26 20 14 11 11 10 9 3 358 348
104 87 50 339 342 307 152 335 250 198 140 105 112 118 117 114 132 152 172 179 188 185 183 186 177 184 174 174 152 139 129 121 113 105 97 80 61 46 35 32 30 32 26 21 14 13 8 2 356
75 62 120 240 341 280 4 241 219 194 164 149 135 134 126 101 112 119 129 135 145 146 161 161 164 165 163 150 142 133 127 119 108 98 85 73 64 53 49 50 48 40 32 31 31 25 19 13 9
351 159 182 16 198 270 185 238 234 183 172 151 154 148 140 123 112 130 129 130 132 132 155 165 156 153 151 139 131 124 116 104 94 87 77 76 67 59 56 57 51 39 37 39 39 38 29 21 12
175 140 160 175 212 229 212 263 259 178 174 175 160 156 153 151 154 141 137 137 138 135 144 147 150 145 141 134 126 117 108 100 95 85 78 71 67 63 63 61 50 40 38 39 38 38 33 26 11
121 139 281 249 200 164 218 238 222 172 167 165 170 165 173 168 162 149 144 143 144 145 146 143 144 147 148 140 129 120 111 106 95 85 76 73 71 65 62 58 49 45 48 43 40 38 32 28 21
152 10 296 287 143 152 175 228 229 186 199 187 177 178 175 153 164 161 156 159 163 151 149 153 149 158 154 150 145 131 125 115 104 94 82 79 77 73 70 62 57 54 52 43 42 36 37 35 32
328 228 256 220 147 68 119 339 199 231 193 189 205 198 178 173 170 172 162 161 156 155 155 154 155 160 161 164 146 136 130 123 115 107 95 89 81 74 67 62 57 55 50 44 39 32 34 35 38
244 209 213 243 121 183 148 231 244 216 215 204 200 192 189 180 167 162 163 167 167 156 152 155 155 155 157 163 162 159 149 141 137 120 103 94 85 76 67 61 54 52 46 39 33 28 29 32 36
228 172 189 160 121 109 276 102 254 140 228 223 208 203 196 181 172 166 164 170 170 163 156 152 151 151 159 170 172 159 150 150 140 128 118 108 93 74 60 52 45 36 28 25 19 23 25 23 24
132 98 51 49 84 59 236 133 283 185 213 228 209 204 197 182 166 155 164 173 164 167 164 160 159 153 160 166 166 165 154 149 148 141 133 116 96 76 58 39 20 9 2 357 1 5 8 11 18
81 68 352 342 9 203 159 77 235 266 234 210 222 209 196 174 158 160 159 151 170 167 172 163 160 151 154 160 159 159 155 156 164 161 149 133 114 78 53 26 13 12 10 358 345 348 351 359 17
192 147 153 199 206 243 205 227 252 255 300 304 220 209 168 171 171 167 160 168 167 179 177 170 161 154 154 156 155 154 157 156 163 168 159 136 116 64 24 5 353 350 358 352 355 1 346 15 14
181 158 179 102 16 74 262 289 332 329 347 65 95 143 175 173 171 163 167 171 174 185 183 176 167 161 161 159 158 158 160 163 161 160 160 149 139 108 358 354 358 14 14 9 7 20 15 9 9
162 154 78 16 139 230 290 273 238 252 220 157 154 171 167 155 161 173 177 174 186 189 186 180 176 172 169 168 170 171 168 167 165 164 169 173 173 168 6 15 13 4 356 1 3 7 11 2 4
312 100 52 113 127 165 213 262 219 216 199 193 198 184 175 180 184 182 182 182 188 190 188 185 184 178 176 178 174 174 171 172 172 169 156 144 118 74 52 46 37 26 13 14 10 7 0 1 4
167 163 133 118 237 173 175 261 215 230 213 203 204 199 199 194 186 187 181 181 187 189 190 190 188 183 183 181 177 175 180 180 169 163 148 129 103 75 66 46 27 18 9 5 14 16 10 3 356